{"data":{"norad_id":64038,"epoch":"2026-09-20T13:46:45.478272Z","epoch_age_seconds":137171,"freshness":"FRESH","line1":"1 64038U 25102S   26263.57413748  .00002713  00000+0  98817-4 0  9998","line2":"2 64038  69.9977 340.7008 0003507 263.8293  96.2483 15.29573431 75307","mean_motion":15.29573431,"eccentricity":0.0003507,"inclination_deg":69.9977,"raan_deg":340.7008,"arg_perigee_deg":263.8293,"mean_anomaly_deg":96.2483,"bstar":9.8817e-5,"rev_number":7530,"period_min":94.143894684321,"perigee_km":474.68240322317,"apogee_km":479.49065700719,"semimajor_km":6855.2235301152,"source":"CELESTRAK","updated_at":"2026-09-21T09:00:35.189111Z"}}